Weather in Posadnikovo

Russia / Pskov Oblast     57°07′09″N   29°16′53″E
temp.,
°C
wind,
m/s
gust,
m/s
humid.,
%
clouds,
%
prec.,
mm/h
press.,
hPa
HPBL,
m
13 may, thu
thu1300:00+13ese268091 0.0 1015146
03:00+12ene41293100 0.1 1013514
06:00+13ese5118738 0.1 10121003
09:00+13se6106719 0.2 10131077
12:00+15se6105362 0.0 10131743
15:00+15ese496089 0.1 10111843
18:00+14ese4877100 0.8 1010612
21:00+9se2994100 3.6 1010354
14 may, fri
fri1400:00+7ese29988 0.0 1010247
03:00+6ese289869 0.0 1010210
06:00+8ese41295100 0.1 1009481
09:00+9ese51396100 0.8 1008767
12:00+13se61187100 1.3 10081167
15:00+16se61275100 1.4 10071424
18:00+14se498099 0.1 1007714
21:00+11ese279411 0.1 1007153
15 may, sat
sat1500:00+11ese399482 0.1 1005214
03:00+10e2698100 0.7 1004147
06:00+12ese2697100 1.2 1003164
09:00+15s238997 1.4 1003407
12:00+17wsw348091 1.3 1003923
15:00+16w468725 4.3 1004714
18:00+16wsw466821 1.0 10051222
21:00+12sw268472 1.0 1007119
16 may, sun
sun1600:00+9ssw269381 0.0 1008113
03:00+7wsw229796 0.0 101043
06:00+8ssw1191100 0.0 101122
09:00+15ssw126321 0.0 1011515
12:00+19ssw234760 0.0 10121606
15:00+21ssw234227 0.0 10112013
18:00+18s246697 0.0 1011242
21:00+15se267844 0.1 1011137
17 may, mon
mon1700:00+12se269312 0.0 1011116
03:00+11se289558 0.0 1011165
06:00+12se29885 0.0 1011197
09:00+17se4969100 0.0 1011489
12:00+22se5853100 0.0 10101838
15:00+23ese5749100 0.0 10081974
18:00+20e4107399 0.4 1006915
21:00+16e2897100 4.8 1004247